QPF
0.02 0.02 0.03 0.03 0.03 0.03 0.01 0.01 0.01 0.01 0.01 0.01 0.01 0.01 0.03 0.08 0.07 0.06 0.04 0.03 0.03 0.02 0.02 0.02 0.03 0.02 0.01 0.01 0.01 0.02 0.04 0.04 0.06 0.07 0.06 0.06 0.10 0.10 0.08 0.08 0.09 0.10 0.08
0.03 0.04 0.04 0.03 0.04 0.03 0.01 0.00 0.01 0.01 0.01 0.00 0.00 0.00 0.01 0.03 0.05 0.05 0.03 0.02 0.03 0.03 0.03 0.03 0.03 0.02 0.01 0.02 0.02 0.02 0.03 0.03 0.03 0.05 0.06 0.05 0.06 0.09 0.09 0.09 0.08 0.09 0.09
0.01 0.03 0.03 0.02 0.03 0.03 0.02 0.01 0.01 0.01 0.01 0.00 0.00 0.00 0.01 0.01 0.01 0.02 0.02 0.02 0.03 0.03 0.04 0.04 0.03 0.02 0.01 0.02 0.02 0.02 0.02 0.02 0.01 0.03 0.04 0.03 0.04 0.05 0.06 0.08 0.10 0.10 0.12
0.01 0.01 0.01 0.02 0.02 0.02 0.02 0.02 0.01 0.01 0.00 0.00 0.00 0.00 0.00 0.01 0.01 0.01 0.01 0.02 0.02 0.03 0.03 0.03 0.03 0.02 0.02 0.02 0.01 0.01 0.01 0.01 0.01 0.02 0.02 0.02 0.03 0.03 0.02 0.04 0.06 0.06 0.08
0.01 0.01 0.01 0.01 0.01 0.01 0.01 0.01 0.01 0.01 0.01 0.00 0.00 0.00 0.00 0.00 0.00 0.01 0.01 0.01 0.01 0.01 0.02 0.02 0.02 0.02 0.01 0.01 0.02 0.02 0.02 0.01 0.02 0.02 0.02 0.03 0.05 0.04 0.03 0.06 0.06 0.05 0.05
0.01 0.02 0.03 0.02 0.01 0.00 0.00 0.00 0.01 0.01 0.01 0.01 0.00 0.00 0.00 0.00 0.00 0.00 0.01 0.01 0.01 0.00 0.01 0.00 0.00 0.01 0.01 0.01 0.01 0.02 0.02 0.02 0.02 0.02 0.03 0.03 0.04 0.05 0.04 0.06 0.06 0.05 0.04
0.01 0.02 0.02 0.01 0.01 0.00 0.00 0.00 0.00 0.01 0.01 0.00 0.00 0.00 0.00 0.00 0.00 0.00 0.01 0.01 0.01 0.00 0.00 0.00 0.01 0.01 0.01 0.01 0.01 0.01 0.02 0.02 0.02 0.02 0.02 0.02 0.02 0.02 0.02 0.03 0.03 0.03 0.02
0.01 0.01 0.01 0.01 0.00 0.00 0.00 0.00 0.00 0.01 0.01 0.01 0.00 0.01 0.00 0.00 0.00 0.00 0.01 0.00 0.00 0.00 0.00 0.00 0.01 0.01 0.01 0.00 0.00 0.00 0.00 0.01 0.01 0.01 0.02 0.02 0.02 0.02 0.02 0.03 0.03 0.03 0.02
0.02 0.01 0.01 0.01 0.00 0.00 0.00 0.00 0.00 0.00 0.01 0.01 0.01 0.01 0.01 0.00 0.00 0.00 0.00 0.00 0.00 0.00 0.00 0.00 0.01 0.01 0.01 0.00 0.01 0.00 0.00 0.01 0.01 0.01 0.01 0.02 0.02 0.01 0.02 0.03 0.03 0.03 0.03
0.02 0.02 0.02 0.01 0.01 0.00 0.00 0.01 0.00 0.00 0.00 0.01 0.01 0.01 0.01 0.01 0.01 0.01 0.00 0.00 0.01 0.00 0.00 0.00 0.01 0.01 0.01 0.01 0.01 0.01 0.01 0.01 0.01 0.01 0.01 0.02 0.02 0.01 0.01 0.01 0.02 0.02 0.02
0.03 0.02 0.04 0.02 0.01 0.01 0.01 0.00 0.00 0.01 0.01 0.01 0.01 0.01 0.01 0.01 0.01 0.01 0.00 0.00 0.00 0.00 0.01 0.01 0.01 0.01 0.01 0.00 0.01 0.01 0.01 0.02 0.02 0.01 0.01 0.02 0.02 0.01 0.01 0.01 0.01 0.01 0.02
0.03 0.02 0.03 0.02 0.01 0.01 0.01 0.01 0.00 0.00 0.01 0.01 0.01 0.01 0.01 0.01 0.01 0.01 0.01 0.01 0.01 0.01 0.01 0.01 0.01 0.00 0.01 0.01 0.01 0.01 0.01 0.01 0.01 0.01 0.01 0.02 0.01 0.01 0.01 0.01 0.01 0.01 0.02
0.01 0.02 0.01 0.01 0.02 0.02 0.01 0.01 0.01 0.01 0.01 0.01 0.01 0.01 0.02 0.02 0.02 0.02 0.02 0.02 0.02 0.02 0.02 0.02 0.02 0.01 0.01 0.01 0.00 0.00 0.00 0.00 0.01 0.01 0.01 0.01 0.01 0.01 0.01 0.01 0.01 0.01 0.01
0.02 0.02 0.01 0.01 0.02 0.04 0.03 0.02 0.03 0.03 0.02 0.02 0.02 0.02 0.03 0.04 0.04 0.02 0.02 0.02 0.02 0.02 0.02 0.03 0.02 0.02 0.02 0.01 0.01 0.01 0.01 0.01 0.01 0.00 0.01 0.01 0.01 0.01 0.00 0.01 0.00 0.00 0.00
0.03 0.03 0.02 0.02 0.03 0.02 0.02 0.02 0.03 0.03 0.04 0.04 0.07 0.08 0.07 0.04 0.04 0.03 0.02 0.01 0.02 0.02 0.02 0.03 0.02 0.02 0.02 0.02 0.03 0.02 0.02 0.01 0.01 0.00 0.01 0.01 0.02 0.01 0.01 0.01 0.00 0.01 0.01
0.05 0.06 0.05 0.04 0.04 0.03 0.04 0.03 0.04 0.05 0.04 0.05 0.08 0.10 0.09 0.06 0.06 0.07 0.05 0.04 0.03 0.02 0.02 0.01 0.01 0.01 0.02 0.03 0.03 0.02 0.02 0.02 0.01 0.01 0.01 0.02 0.02 0.02 0.01 0.00 0.01 0.01 0.01
0.06 0.06 0.04 0.04 0.04 0.04 0.04 0.05 0.04 0.04 0.05 0.05 0.04 0.03 0.03 0.03 0.05 0.06 0.06 0.05 0.04 0.04 0.03 0.01 0.01 0.02 0.02 0.02 0.02 0.03 0.03 0.02 0.02 0.01 0.01 0.02 0.02 0.03 0.02 0.01 0.01 0.01 0.01
0.05 0.03 0.03 0.03 0.05 0.05 0.05 0.05 0.04 0.02 0.03 0.06 0.05 0.04 0.03 0.04 0.05 0.05 0.03 0.03 0.04 0.03 0.03 0.02 0.02 0.02 0.02 0.02 0.02 0.03 0.02 0.02 0.02 0.01 0.01 0.02 0.02 0.03 0.03 0.02 0.02 0.01 0.01
0.03 0.03 0.02 0.03 0.05 0.08 0.07 0.04 0.03 0.03 0.02 0.04 0.06 0.05 0.06 0.08 0.09 0.08 0.06 0.04 0.03 0.03 0.02 0.02 0.03 0.02 0.02 0.03 0.03 0.03 0.02 0.01 0.01 0.01 0.01 0.02 0.02 0.03 0.03 0.03 0.02 0.02 0.02
0.02 0.02 0.03 0.04 0.06 0.06 0.05 0.03 0.01 0.01 0.02 0.02 0.03 0.03 0.04 0.05 0.04 0.04 0.03 0.03 0.02 0.02 0.02 0.02 0.02 0.03 0.03 0.03 0.03 0.02 0.01 0.01 0.01 0.01 0.01 0.01 0.02 0.03 0.02 0.02 0.02 0.02 0.02
0.02 0.03 0.03 0.03 0.02 0.02 0.02 0.01 0.01 0.01 0.01 0.03 0.03 0.02 0.02 0.03 0.03 0.02 0.02 0.03 0.02 0.02 0.02 0.02 0.02 0.02 0.03 0.04 0.03 0.02 0.02 0.01 0.01 0.01 0.01 0.01 0.02 0.02 0.02 0.02 0.02 0.02 0.02
0.03 0.03 0.03 0.02 0.01 0.01 0.01 0.01 0.01 0.01 0.02 0.03 0.03 0.03 0.04 0.04 0.03 0.02 0.02 0.02 0.02 0.03 0.03 0.03 0.04 0.05 0.04 0.04 0.02 0.02 0.02 0.02 0.01 0.01 0.01 0.01 0.01 0.02 0.02 0.02 0.03 0.04 0.08
0.05 0.03 0.03 0.03 0.02 0.01 0.01 0.01 0.02 0.03 0.03 0.04 0.04 0.04 0.04 0.04 0.04 0.03 0.03 0.02 0.03 0.03 0.03 0.03 0.02 0.02 0.03 0.04 0.03 0.02 0.02 0.02 0.01 0.01 0.01 0.01 0.01 0.01 0.01 0.01 0.02 0.02 0.02
0.06 0.04 0.05 0.04 0.03 0.03 0.02 0.02 0.02 0.04 0.05 0.06 0.05 0.04 0.04 0.05 0.06 0.05 0.03 0.03 0.04 0.05 0.04 0.03 0.02 0.02 0.03 0.03 0.03 0.03 0.02 0.02 0.02 0.02 0.01 0.01 0.01 0.01 0.00 0.00 0.01 0.01 0.01
0.05 0.05 0.05 0.06 0.07 0.06 0.04 0.05 0.04 0.05 0.06 0.06 0.06 0.06 0.05 0.05 0.06 0.06 0.05 0.04 0.04 0.04 0.03 0.03 0.03 0.04 0.03 0.04 0.05 0.04 0.03 0.02 0.02 0.02 0.01 0.00 0.00 0.00 0.00 0.00 0.01 0.01 0.01
0.02 0.03 0.04 0.04 0.05 0.05 0.05 0.06 0.05 0.06 0.07 0.08 0.07 0.06 0.05 0.05 0.05 0.05 0.05 0.05 0.04 0.03 0.03 0.03 0.03 0.04 0.04 0.05 0.06 0.06 0.05 0.03 0.02 0.02 0.01 0.01 0.00 0.00 0.01 0.01 0.01 0.01 0.01
MSLP
1004.34 1004.84 1005.29 1005.66 1005.94 1006.16 1006.35 1006.58 1006.88 1007.27 1007.75 1008.28 1008.81 1009.31 1009.73 1010.06 1010.32 1010.54 1010.77 1011.06 1011.45 1011.97 1012.60 1013.33 1014.11 1014.91 1015.68 1016.41 1017.09 1017.72 1018.32 1018.89 1019.44 1019.96 1020.42 1020.78 1021.02 1021.11 1021.05 1020.85 1020.55 1020.20 1019.84
1004.20 1004.73 1005.19 1005.55 1005.79 1005.93 1006.04 1006.19 1006.42 1006.78 1007.25 1007.82 1008.41 1008.98 1009.47 1009.87 1010.16 1010.40 1010.62 1010.89 1011.26 1011.75 1012.37 1013.09 1013.88 1014.68 1015.46 1016.20 1016.88 1017.51 1018.10 1018.67 1019.23 1019.76 1020.23 1020.63 1020.91 1021.04 1021.03 1020.87 1020.61 1020.29 1019.95
1003.97 1004.54 1005.04 1005.40 1005.61 1005.70 1005.74 1005.80 1005.96 1006.26 1006.71 1007.28 1007.91 1008.54 1009.10 1009.56 1009.91 1010.18 1010.43 1010.71 1011.08 1011.56 1012.16 1012.87 1013.65 1014.44 1015.22 1015.94 1016.61 1017.23 1017.81 1018.38 1018.93 1019.46 1019.96 1020.38 1020.70 1020.89 1020.92 1020.83 1020.62 1020.35 1020.06
1003.63 1004.26 1004.81 1005.21 1005.42 1005.48 1005.45 1005.44 1005.52 1005.75 1006.16 1006.71 1007.35 1008.02 1008.63 1009.16 1009.58 1009.91 1010.21 1010.52 1010.90 1011.39 1012.00 1012.70 1013.47 1014.25 1015.01 1015.73 1016.38 1016.98 1017.54 1018.09 1018.63 1019.16 1019.65 1020.09 1020.44 1020.67 1020.76 1020.72 1020.58 1020.38 1020.14
1003.20 1003.90 1004.52 1004.97 1005.22 1005.27 1005.22 1005.14 1005.15 1005.31 1005.66 1006.17 1006.80 1007.47 1008.13 1008.71 1009.19 1009.60 1009.96 1010.32 1010.75 1011.26 1011.88 1012.59 1013.36 1014.14 1014.89 1015.59 1016.23 1016.81 1017.35 1017.88 1018.39 1018.89 1019.38 1019.81 1020.16 1020.41 1020.54 1020.56 1020.48 1020.33 1020.16
1002.69 1003.47 1004.18 1004.71 1005.01 1005.09 1005.03 1004.93 1004.88 1004.98 1005.25 1005.71 1006.30 1006.97 1007.64 1008.26 1008.80 1009.27 1009.70 1010.14 1010.62 1011.18 1011.82 1012.55 1013.33 1014.11 1014.86 1015.55 1016.18 1016.75 1017.27 1017.76 1018.24 1018.70 1019.15 1019.55 1019.89 1020.14 1020.29 1020.33 1020.30 1020.21 1020.10
1002.15 1002.99 1003.79 1004.40 1004.78 1004.93 1004.90 1004.79 1004.71 1004.76 1004.97 1005.37 1005.91 1006.55 1007.22 1007.86 1008.45 1008.98 1009.48 1009.98 1010.52 1011.12 1011.81 1012.56 1013.35 1014.15 1014.90 1015.60 1016.22 1016.77 1017.27 1017.73 1018.16 1018.58 1018.98 1019.33 1019.63 1019.86 1020.00 1020.06 1020.06 1020.02 1019.96
1001.62 1002.51 1003.38 1004.08 1004.55 1004.76 1004.79 1004.71 1004.63 1004.65 1004.82 1005.17 1005.66 1006.26 1006.91 1007.56 1008.17 1008.74 1009.30 1009.85 1010.45 1011.10 1011.82 1012.61 1013.41 1014.22 1014.98 1015.68 1016.30 1016.84 1017.32 1017.75 1018.14 1018.50 1018.83 1019.13 1019.38 1019.56 1019.69 1019.75 1019.78 1019.77 1019.76
1001.16 1002.07 1002.99 1003.75 1004.30 1004.59 1004.69 1004.67 1004.62 1004.64 1004.80 1005.10 1005.55 1006.11 1006.73 1007.37 1007.99 1008.59 1009.18 1009.78 1010.41 1011.10 1011.85 1012.65 1013.47 1014.29 1015.06 1015.76 1016.37 1016.91 1017.37 1017.76 1018.11 1018.42 1018.69 1018.93 1019.12 1019.27 1019.38 1019.44 1019.48 1019.51 1019.55
1000.83 1001.73 1002.65 1003.45 1004.04 1004.41 1004.58 1004.63 1004.64 1004.70 1004.86 1005.15 1005.58 1006.10 1006.69 1007.30 1007.91 1008.52 1009.12 1009.74 1010.40 1011.11 1011.88 1012.69 1013.51 1014.32 1015.09 1015.79 1016.40 1016.93 1017.37 1017.74 1018.05 1018.31 1018.54 1018.72 1018.87 1018.99 1019.07 1019.14 1019.20 1019.27 1019.34
1000.69 1001.53 1002.40 1003.19 1003.80 1004.22 1004.46 1004.59 1004.67 1004.79 1004.98 1005.29 1005.70 1006.20 1006.76 1007.35 1007.94 1008.53 1009.13 1009.76 1010.42 1011.13 1011.90 1012.70 1013.52 1014.32 1015.08 1015.76 1016.37 1016.88 1017.31 1017.66 1017.94 1018.17 1018.36 1018.51 1018.63 1018.72 1018.80 1018.87 1018.95 1019.05 1019.17
1000.78 1001.50 1002.28 1003.00 1003.60 1004.03 1004.33 1004.53 1004.70 1004.89 1005.14 1005.48 1005.90 1006.39 1006.92 1007.48 1008.05 1008.62 1009.20 1009.81 1010.46 1011.17 1011.92 1012.70 1013.50 1014.28 1015.02 1015.69 1016.28 1016.78 1017.19 1017.52 1017.79 1017.99 1018.16 1018.28 1018.38 1018.46 1018.54 1018.62 1018.73 1018.86 1019.02
1001.07 1001.65 1002.30 1002.91 1003.44 1003.87 1004.20 1004.47 1004.72 1005.00 1005.32 1005.70 1006.14 1006.63 1007.15 1007.68 1008.21 1008.75 1009.31 1009.90 1010.53 1011.22 1011.95 1012.71 1013.48 1014.23 1014.94 1015.59 1016.16 1016.64 1017.03 1017.35 1017.60 1017.79 1017.94 1018.05 1018.14 1018.21 1018.29 1018.39 1018.51 1018.66 1018.85
1001.52 1001.93 1002.41 1002.89 1003.34 1003.73 1004.09 1004.42 1004.74 1005.10 1005.50 1005.93 1006.40 1006.90 1007.40 1007.90 1008.41 1008.92 1009.45 1010.02 1010.63 1011.29 1012.00 1012.73 1013.47 1014.20 1014.87 1015.49 1016.03 1016.48 1016.86 1017.16 1017.39 1017.57 1017.71 1017.81 1017.89 1017.96 1018.04 1018.14 1018.27 1018.43 1018.64
1002.03 1002.26 1002.57 1002.91 1003.27 1003.62 1003.99 1004.36 1004.77 1005.20 1005.67 1006.16 1006.67 1007.17 1007.66 1008.14 1008.61 1009.10 1009.60 1010.15 1010.74 1011.38 1012.06 1012.77 1013.48 1014.17 1014.81 1015.39 1015.90 1016.33 1016.68 1016.96 1017.18 1017.34 1017.46 1017.56 1017.63 1017.69 1017.76 1017.85 1017.98 1018.14 1018.35
1002.47 1002.54 1002.69 1002.91 1003.19 1003.52 1003.89 1004.32 1004.79 1005.30 1005.84 1006.38 1006.91 1007.42 1007.90 1008.36 1008.81 1009.27 1009.75 1010.27 1010.85 1011.47 1012.13 1012.82 1013.50 1014.15 1014.76 1015.30 1015.77 1016.16 1016.49 1016.74 1016.94 1017.09 1017.20 1017.28 1017.34 1017.40 1017.46 1017.53 1017.64 1017.79 1017.99
1002.73 1002.67 1002.71 1002.85 1003.07 1003.39 1003.79 1004.27 1004.80 1005.38 1005.97 1006.56 1007.11 1007.62 1008.09 1008.53 1008.96 1009.40 1009.86 1010.37 1010.93 1011.53 1012.18 1012.84 1013.49 1014.11 1014.68 1015.18 1015.62 1015.98 1016.27 1016.51 1016.69 1016.82 1016.93 1017.00 1017.05 1017.09 1017.14 1017.20 1017.29 1017.41 1017.58
1002.73 1002.60 1002.57 1002.66 1002.88 1003.21 1003.65 1004.18 1004.79 1005.42 1006.06 1006.67 1007.24 1007.76 1008.22 1008.64 1009.05 1009.46 1009.91 1010.40 1010.95 1011.54 1012.17 1012.80 1013.43 1014.02 1014.55 1015.02 1015.42 1015.75 1016.02 1016.23 1016.40 1016.53 1016.63 1016.71 1016.76 1016.80 1016.84 1016.88 1016.95 1017.05 1017.19
1002.44 1002.29 1002.26 1002.36 1002.59 1002.97 1003.46 1004.05 1004.71 1005.40 1006.07 1006.71 1007.28 1007.79 1008.24 1008.65 1009.04 1009.44 1009.87 1010.35 1010.89 1011.46 1012.07 1012.68 1013.28 1013.84 1014.34 1014.77 1015.15 1015.46 1015.71 1015.92 1016.09 1016.23 1016.34 1016.43 1016.50 1016.55 1016.59 1016.63 1016.69 1016.77 1016.88
1001.94 1001.81 1001.81 1001.95 1002.24 1002.66 1003.21 1003.86 1004.56 1005.28 1005.98 1006.63 1007.21 1007.71 1008.16 1008.55 1008.93 1009.32 1009.74 1010.21 1010.73 1011.29 1011.88 1012.47 1013.03 1013.56 1014.04 1014.46 1014.81 1015.11 1015.37 1015.59 1015.77 1015.94 1016.08 1016.19 1016.29 1016.36 1016.42 1016.47 1016.53 1016.60 1016.69
1001.32 1001.24 1001.30 1001.50 1001.84 1002.32 1002.92 1003.60 1004.34 1005.08 1005.79 1006.44 1007.01 1007.52 1007.96 1008.35 1008.72 1009.11 1009.53 1009.99 1010.49 1011.03 1011.60 1012.16 1012.70 1013.21 1013.67 1014.07 1014.43 1014.74 1015.01 1015.25 1015.47 1015.67 1015.85 1016.00 1016.14 1016.25 1016.33 1016.41 1016.47 1016.53 1016.60
1000.70 1000.69 1000.80 1001.05 1001.45 1001.97 1002.59 1003.29 1004.03 1004.77 1005.48 1006.13 1006.71 1007.21 1007.66 1008.06 1008.44 1008.83 1009.25 1009.70 1010.19 1010.72 1011.26 1011.80 1012.32 1012.81 1013.26 1013.66 1014.02 1014.35 1014.65 1014.93 1015.18 1015.43 1015.65 1015.85 1016.03 1016.18 1016.29 1016.38 1016.45 1016.51 1016.56
1000.20 1000.23 1000.39 1000.68 1001.10 1001.63 1002.25 1002.94 1003.67 1004.39 1005.09 1005.73 1006.31 1006.83 1007.29 1007.71 1008.11 1008.52 1008.94 1009.39 1009.88 1010.38 1010.90 1011.41 1011.91 1012.39 1012.83 1013.25 1013.62 1013.98 1014.31 1014.63 1014.93 1015.21 1015.47 1015.71 1015.92 1016.10 1016.23 1016.34 1016.41 1016.46 1016.49
999.88 999.95 1000.12 1000.41 1000.82 1001.32 1001.91 1002.57 1003.26 1003.96 1004.63 1005.27 1005.86 1006.39 1006.88 1007.34 1007.77 1008.20 1008.64 1009.10 1009.57 1010.05 1010.55 1011.04 1011.52 1011.99 1012.43 1012.85 1013.24 1013.62 1013.99 1014.34 1014.67 1014.98 1015.27 1015.53 1015.76 1015.94 1016.08 1016.19 1016.25 1016.28 1016.29
999.76 999.83 999.99 1000.25 1000.61 1001.07 1001.60 1002.19 1002.83 1003.49 1004.14 1004.78 1005.38 1005.95 1006.48 1006.98 1007.45 1007.91 1008.37 1008.83 1009.29 1009.76 1010.22 1010.69 1011.15 1011.60 1012.03 1012.46 1012.87 1013.27 1013.66 1014.03 1014.38 1014.70 1015.00 1015.25 1015.47 1015.64 1015.77 1015.85 1015.90 1015.91 1015.89
999.82 999.86 999.98 1000.19 1000.48 1000.86 1001.31 1001.83 1002.41 1003.02 1003.65 1004.29 1004.91 1005.51 1006.09 1006.63 1007.15 1007.65 1008.12 1008.58 1009.03 1009.48 1009.91 1010.35 1010.77 1011.20 1011.63 1012.05 1012.46 1012.87 1013.27 1013.64 1013.99 1014.31 1014.59 1014.83 1015.02 1015.16 1015.26 1015.31 1015.33 1015.32 1015.28
Thickness
5817 5816 5814 5811 5806 5801 5797 5795 5793 5791 5789 5785 5780 5777 5775 5776 5776 5777 5776 5775 5774 5773 5771 5769 5768 5766 5764 5762 5761 5759 5756 5754 5754 5749 5745 5746 5748 5747 5746 5746 5744 5743 5742
5815 5814 5813 5812 5808 5803 5799 5797 5795 5793 5791 5788 5784 5781 5778 5777 5777 5776 5776 5775 5774 5773 5771 5769 5767 5766 5764 5761 5759 5758 5754 5752 5752 5746 5740 5735 5737 5742 5745 5743 5742 5741 5741
5818 5816 5814 5812 5810 5807 5803 5801 5797 5795 5793 5791 5787 5783 5779 5776 5774 5774 5774 5774 5774 5773 5771 5769 5767 5765 5763 5760 5758 5757 5753 5749 5750 5749 5742 5733 5729 5733 5737 5739 5739 5738 5737
5823 5820 5817 5814 5813 5811 5808 5804 5800 5797 5795 5793 5787 5782 5777 5772 5773 5773 5773 5774 5773 5772 5771 5769 5767 5765 5763 5761 5759 5758 5755 5751 5747 5748 5747 5744 5740 5732 5729 5733 5735 5735 5734
5827 5824 5823 5820 5817 5815 5811 5806 5802 5799 5796 5794 5790 5785 5780 5777 5775 5774 5773 5772 5772 5771 5770 5769 5767 5764 5762 5761 5759 5757 5755 5753 5749 5746 5745 5743 5740 5737 5730 5725 5727 5729 5730
5831 5827 5825 5822 5818 5816 5812 5807 5803 5799 5797 5794 5791 5787 5782 5778 5775 5772 5770 5770 5769 5769 5769 5768 5766 5764 5762 5760 5758 5756 5755 5752 5750 5748 5745 5742 5738 5734 5731 5725 5723 5723 5725
5833 5827 5822 5820 5817 5815 5812 5808 5803 5800 5798 5795 5792 5789 5785 5781 5776 5773 5771 5769 5767 5767 5766 5766 5764 5762 5761 5759 5757 5755 5753 5751 5749 5747 5745 5743 5741 5739 5734 5727 5722 5720 5721
5834 5830 5827 5824 5821 5817 5813 5809 5805 5801 5798 5795 5792 5790 5786 5782 5778 5776 5773 5770 5768 5767 5766 5765 5763 5761 5760 5758 5756 5754 5752 5750 5748 5747 5744 5742 5740 5738 5734 5728 5723 5716 5714
5835 5832 5830 5827 5824 5820 5816 5812 5807 5803 5799 5796 5793 5789 5786 5782 5779 5776 5774 5771 5769 5767 5765 5763 5761 5759 5758 5756 5754 5751 5750 5748 5746 5745 5743 5740 5738 5736 5733 5730 5725 5717 5709
5834 5833 5831 5830 5828 5824 5820 5815 5810 5806 5802 5798 5794 5791 5786 5783 5780 5776 5772 5770 5768 5766 5763 5760 5759 5757 5755 5753 5751 5749 5748 5746 5744 5742 5740 5737 5735 5733 5731 5728 5724 5720 5713
5833 5832 5831 5830 5827 5823 5819 5814 5810 5805 5801 5797 5794 5790 5786 5783 5779 5775 5772 5769 5767 5764 5761 5759 5757 5755 5753 5751 5749 5746 5745 5743 5741 5739 5736 5734 5732 5729 5727 5725 5721 5718 5713
5836 5833 5830 5827 5823 5820 5817 5813 5809 5805 5802 5798 5793 5789 5785 5781 5777 5774 5771 5769 5765 5763 5761 5758 5755 5753 5751 5749 5746 5744 5742 5739 5737 5735 5732 5730 5729 5726 5723 5720 5717 5714 5711
5831 5829 5826 5823 5821 5819 5816 5812 5808 5805 5801 5797 5791 5787 5782 5778 5775 5772 5769 5766 5764 5761 5759 5756 5753 5751 5749 5747 5744 5741 5739 5736 5734 5732 5729 5727 5724 5721 5719 5716 5713 5710 5708
5826 5823 5819 5819 5819 5817 5814 5811 5807 5804 5800 5795 5790 5785 5781 5777 5774 5771 5767 5764 5762 5759 5757 5754 5752 5750 5748 5745 5743 5739 5736 5734 5732 5730 5728 5725 5722 5719 5716 5713 5710 5707 5703
5819 5819 5816 5815 5814 5813 5811 5809 5806 5803 5800 5793 5787 5784 5781 5777 5773 5769 5766 5763 5760 5758 5755 5752 5749 5748 5746 5743 5741 5737 5734 5731 5729 5727 5725 5723 5721 5718 5715 5712 5707 5704 5699
5815 5815 5815 5813 5811 5809 5807 5806 5803 5801 5797 5791 5786 5783 5779 5775 5771 5767 5764 5761 5757 5754 5752 5749 5746 5744 5743 5742 5739 5736 5732 5729 5726 5723 5721 5720 5717 5715 5712 5710 5707 5703 5697
5813 5812 5812 5811 5809 5808 5805 5802 5801 5799 5794 5789 5784 5781 5777 5773 5769 5766 5762 5758 5754 5751 5748 5745 5743 5741 5740 5738 5736 5734 5729 5725 5722 5720 5717 5716 5714 5711 5708 5705 5703 5700 5697
5810 5811 5810 5807 5806 5805 5802 5799 5796 5793 5790 5786 5782 5779 5776 5772 5767 5763 5759 5756 5753 5748 5745 5743 5740 5738 5737 5735 5733 5730 5726 5723 5720 5717 5714 5711 5709 5707 5704 5700 5696 5693 5692
5808 5808 5807 5805 5802 5799 5797 5793 5790 5788 5785 5782 5780 5778 5774 5770 5765 5760 5757 5754 5750 5746 5742 5740 5737 5735 5733 5732 5729 5726 5721 5718 5716 5714 5711 5709 5705 5704 5700 5695 5690 5687 5686
5802 5801 5801 5799 5796 5794 5792 5787 5784 5782 5780 5780 5779 5776 5773 5768 5764 5760 5755 5752 5748 5743 5740 5737 5735 5733 5730 5729 5726 5722 5717 5713 5710 5709 5707 5705 5702 5699 5695 5690 5685 5681 5680
5794 5795 5793 5790 5790 5789 5786 5781 5779 5777 5778 5778 5775 5772 5769 5766 5762 5757 5753 5749 5744 5740 5736 5733 5731 5729 5728 5726 5723 5719 5714 5710 5706 5703 5701 5700 5698 5694 5690 5687 5682 5679 5676
5783 5784 5782 5782 5783 5782 5779 5775 5774 5776 5774 5772 5769 5766 5764 5761 5758 5752 5749 5746 5741 5736 5731 5728 5726 5725 5724 5722 5719 5715 5711 5708 5702 5699 5697 5695 5693 5689 5685 5681 5679 5675 5671
5771 5773 5772 5772 5773 5774 5774 5770 5770 5770 5768 5765 5762 5760 5758 5755 5752 5747 5744 5740 5736 5732 5728 5725 5721 5719 5719 5717 5715 5711 5707 5703 5699 5696 5694 5691 5688 5684 5679 5676 5674 5670 5665
5760 5762 5762 5761 5761 5764 5766 5766 5765 5764 5760 5757 5755 5753 5750 5747 5745 5743 5740 5736 5732 5728 5725 5721 5718 5714 5712 5710 5708 5705 5701 5698 5694 5690 5687 5685 5681 5678 5674 5670 5667 5664 5660
5749 5752 5752 5753 5753 5755 5756 5757 5756 5755 5752 5749 5747 5746 5744 5741 5738 5735 5733 5731 5729 5728 5723 5720 5717 5711 5707 5707 5705 5700 5695 5692 5688 5683 5679 5676 5672 5669 5666 5663 5660 5657 5654
5739 5739 5741 5743 5745 5746 5746 5747 5748 5747 5744 5741 5739 5738 5736 5734 5731 5727 5723 5723 5723 5722 5720 5718 5714 5711 5708 5704 5699 5696 5692 5688 5683 5677 5673 5670 5667 5664 5661 5657 5654 5652 5649